This is the latest recevied weather packets stored in our database for station/object KG4AGD. If no packets are shown the sender has not sent any weather packets the latest 10 day(s).
| Time | Temp. | Humidity | Pressure | Rain* | Wind** | Luminosity | Snow |
|---|---|---|---|---|---|---|---|
| 1777932518 | 25.56° C | 38% | 1014.9 hPa | 0 mm | - | - | - |
| 1777932216 | 25.56° C | 39% | 1014.9 hPa | 0 mm | - | - | - |
| 1777931913 | 26.11° C | 40% | 1014.9 hPa | 0 mm | - | - | - |
| 1777931611 | 25.56° C | 38% | 1014.9 hPa | 0 mm | - | - | - |
| 1777931309 | 26.11° C | 38% | 1014.9 hPa | 0 mm | - | - | - |
| 1777931007 | 26.11° C | 38% | 1015.2 hPa | 0 mm | - | - | - |
| 1777930705 | 26.11° C | 37% | 1014.9 hPa | 0 mm | - | - | - |
| 1777930402 | 26.67° C | 38% | 1014.9 hPa | 0 mm | - | - | - |
| 1777930100 | 26.11° C | 37% | 1014.9 hPa | 0 mm | - | - | - |
| 1777929798 | 26.11° C | 36% | 1015.2 hPa | 0 mm | - | - | - |
| 1777929495 | 26.11° C | 38% | 1014.9 hPa | 0 mm | - | - | - |
| 1777929193 | 26.11° C | 37% | 1015.2 hPa | 0 mm | - | - | - |
| 1777928891 | 26.67° C | 38% | 1014.9 hPa | 0 mm | - | - | - |
| 1777928589 | 26.67° C | 38% | 1014.9 hPa | 0 mm | - | - | - |
| 1777928287 | 26.67° C | 36% | 1014.9 hPa | 0 mm | - | - | - |
| 1777927984 | 26.11° C | 37% | 1015.2 hPa | 0 mm | - | - | - |
| 1777927682 | 26.67° C | 36% | 1015.2 hPa | 0 mm | - | - | - |
| 1777927380 | 26.67° C | 36% | 1015.2 hPa | 0 mm | - | - | - |
| 1777927078 | 26.67° C | 36% | 1015.2 hPa | 0 mm | - | - | - |
| 1777926775 | 26.67° C | 36% | 1015.2 hPa | 0 mm | - | - | - |
| 1777926473 | 26.67° C | 36% | 1015.5 hPa | 0 mm | - | - | - |
| 1777926171 | 27.22° C | 35% | 1015.5 hPa | 0 mm | - | - | - |
| 1777925868 | 26.67° C | 38% | 1015.2 hPa | 0 mm | - | - | - |
| 1777925566 | 26.67° C | 36% | 1015.5 hPa | 0 mm | - | - | - |
| 1777925264 | 26.11° C | 36% | 1015.5 hPa | 0 mm | - | - | - |
* Rain since midnight (hover to see other rain measurements)
** Current wind speed in m/s (hover to see current wind gust speed)